FW1247 Weather Reports


time (UTC)temp
F
wind
direction
speed
knots
gust
knots
rain 1hr
in
rain 24hr
in
rain mn
in
humidity
%
barometer
mb
20260507074533 58 26 2.6 7.0 0.00 0.00 0.00 61 1012.2
20260507073029 56 19 1.7 8.7 0.00 0.00 0.00 64 1012.1
20260507071524 56 58 2.6 7.8 0.00 0.00 0.00 66 1012.2
20260507070028 56 5 2.6 8.7 0.00 0.00 0.00 66 1012.1
20260507064515 54 35 2.6 7.8 0.00 0.00 0.00 71 1012.0
20260507063010 53 30 2.6 7.8 0.00 0.00 0.00 73 1012.0
20260507061507 52 48 4.3 8.7 0.00 0.00 0.00 74 1011.9
20260507060004 51 35 2.6 7.8 0.00 0.00 0.00 76 1011.9
20260507054558 50 30 2.6 7.8 0.00 0.00 0.00 78 1011.8
20260507053053 49 73 2.6 6.1 0.00 0.00 0.00 80 1011.7
20260507051549 47 12 0.9 2.6 0.00 0.00 0.00 86 1011.5
20260507050046 44 35 0.0 2.6 0.00 0.00 0.00 89 1011.4
20260507044544 42 15 0.9 1.7 0.00 0.00 0.00 89 1011.3
20260507043040 41 12 0.0 1.7 0.00 0.00 0.00 89 1011.2
20260507041537 40 12 0.0 1.7 0.00 0.00 0.00 89 1011.1
20260507040036 39 12 0.9 1.7 0.00 0.00 0.00 89 1011.0
20260507034531 39 12 0.9 2.6 0.00 0.00 0.00 88 1010.9
20260507033031 40 21 0.0 0.9 0.00 0.00 0.00 88 1010.6
20260507031528 40 21 0.9 1.7 0.00 0.00 0.00 87 1010.4
20260507030025 40 21 0.9 2.6 0.00 0.00 0.00 87 1010.4
20260507024522 40 22 0.9 2.6 0.00 0.00 0.00 87 1010.4
20260507023020 41 22 0.0 1.7 0.00 0.00 0.00 86 1010.2
20260507021523 41 22 0.9 2.6 0.00 0.00 0.00 86 1010.1
20260507020018 41 22 0.9 3.5 0.00 0.00 0.00 85 1010.2
20260507014526 42 30 1.7 4.3 0.00 0.00 0.00 85 1010.1
20260507013028 43 351 0.9 2.6 0.00 0.00 0.00 84 1010.2
20260507011513 44 351 0.9 2.6 0.00 0.00 0.00 83 1010.1
20260507010010 44 72 1.7 3.5 0.00 0.00 0.00 83 1010.0
20260507004505 44 91 2.6 7.0 0.00 0.00 0.00 83 1009.8
20260507003004 44 55 1.7 4.3 0.00 0.00 0.00 82 1009.7
20260507001504 45 72 2.6 8.7 0.00 0.00 0.00 82 1009.5
20260506234559 45 83 2.6 7.0 0.00 0.00 0.00 82 1009.5
20260506233111 45 67 4.3 8.7 0.00 0.00 0.00 83 1009.6
20260506231601 45 82 2.6 7.8 0.00 0.00 0.00 83 1009.5
20260506230055 45 66 3.5 7.0 0.00 0.00 0.00 84 1009.6
20260506224553 45 32 1.7 5.2 0.00 0.00 0.00 83 1009.6
20260506223053 45 55 2.6 8.7 0.00 0.00 0.00 83 1009.4
20260506221549 45 63 1.7 5.2 0.00 0.00 0.00 83 1009.4
20260506220046 45 49 2.6 6.1 0.00 0.00 0.00 83 1009.4
20260506214544 45 61 3.5 10.4 0.00 0.00 0.00 83 1009.2
20260506213057 45 71 3.5 7.8 0.00 0.00 0.00 83 1009.2
20260506211540 45 61 3.5 9.6 0.00 0.00 0.00 83 1009.1
20260506210041 45 62 3.5 8.7 0.00 0.00 0.00 82 1009.2
20260506204539 45 74 6.1 10.4 0.00 0.00 0.00 82 1009.0
20260506203037 45 82 4.3 12.2 0.00 0.00 0.00 82 1009.0
20260506201536 45 79 3.5 11.3 0.00 0.00 0.00 82 1009.0
20260506200034 45 74 6.1 13.0 0.00 0.00 0.00 82 1008.8
20260506194532 45 94 8.7 12.2 0.00 0.00 0.00 82 1008.8
20260506193031 45 77 7.0 12.2 0.00 0.00 0.00 82 1008.7
20260506191529 45 74 7.8 13.9 0.00 0.00 0.00 83 1008.8
20260506190028 46 80 4.3 11.3 0.00 0.00 0.00 82 1008.7
20260506184540 46 65 7.8 14.8 0.00 0.00 0.00 82 1008.5
20260506183036 46 71 7.8 12.2 0.00 0.00 0.00 82 1008.3
20260506181526 46 91 6.1 13.9 0.00 0.00 0.00 81 1008.2
20260506180020 47 69 7.8 13.9 0.00 0.00 0.00 80 1008.1
20260506174521 47 88 4.3 14.8 0.00 0.00 0.00 80 1008.0
20260506173016 47 90 7.0 18.2 0.00 0.00 0.00 78 1007.9
20260506171514 48 61 10.4 17.4 0.00 0.00 0.00 76 1007.8
20260506170013 48 74 11.3 19.1 0.00 0.00 0.00 75 1007.6
20260506164511 49 61 11.3 16.5 0.00 0.00 0.00 75 1007.5
20260506163010 50 69 7.8 16.5 0.00 0.00 0.00 74 1007.5
20260506161610 51 64 10.4 16.5 0.00 0.00 0.00 72 1007.3
20260506160011 51 65 7.8 16.5 0.00 0.00 0.00 75 1007.2
20260506154508 51 73 8.7 14.8 0.00 0.00 0.00 75 1007.3
20260506153017 52 83 8.7 15.6 0.00 0.00 0.00 75 1007.1
20260506151507 53 67 10.4 15.6 0.00 0.00 0.00 73 1007.2
20260506150006 52 64 11.3 15.6 0.00 0.00 0.00 74 1007.0
20260506144513 53 76 8.7 14.8 0.00 0.00 0.00 75 1006.9
20260506143004 54 57 7.8 17.4 0.00 0.00 0.00 73 1006.8
20260506141501 54 81 5.2 13.9 0.00 0.00 0.00 73 1006.8
20260506140106 54 71 9.6 16.5 0.00 0.00 0.00 69 1006.7
20260506134556 55 95 8.7 13.0 0.00 0.00 0.00 67 1006.6
20260506133055 56 74 9.6 13.9 0.00 0.00 0.00 64 1006.6
20260506131555 56 55 9.6 15.6 0.00 0.00 0.00 61 1006.5
20260506130051 56 20 9.6 16.5 0.00 0.00 0.00 63 1006.3
20260506124550 58 61 6.1 13.0 0.00 0.00 0.00 61 1006.3
20260506123049 56 67 8.7 13.9 0.00 0.00 0.00 63 1006.2
20260506121548 57 69 8.7 14.8 0.00 0.00 0.00 60 1006.1
20260506120047 58 51 8.7 15.6 0.00 0.00 0.00 63 1006.0
20260506114546 57 83 4.3 14.8 0.00 0.00 0.00 65 1006.1
20260506113045 56 5 7.8 15.6 0.00 0.00 0.00 67 1006.1
20260506111545 56 69 7.8 14.8 0.00 0.00 0.00 69 1006.1
20260506110044 57 66 7.0 14.8 0.00 0.00 0.00 65 1006.1
20260506104543 59 36 5.2 13.0 0.00 0.00 0.00 66 1006.1
20260506103050 59 321 6.1 12.2 0.00 0.00 0.00 63 1006.1
20260506101538 58 14 6.1 13.0 0.00 0.00 0.00 63 1006.1
20260506100038 59 10 5.2 12.2 0.00 0.00 0.00 62 1006.0
20260506094535 58 50 7.0 11.3 0.00 0.00 0.00 61 1006.0
20260506093030 57 5 7.0 15.6 0.00 0.00 0.00 60 1005.9
20260506091530 58 35 6.1 12.2 0.00 0.00 0.00 60 1005.8
20260506090032 57 360 6.1 10.4 0.00 0.00 0.00 60 1005.8
20260506084525 57 32 2.6 8.7 0.00 0.00 0.00 60 1005.7
20260506083023 57 307 3.5 8.7 0.00 0.00 0.00 60 1005.6
20260506081522 56 313 3.5 8.7 0.00 0.00 0.00 61 1005.6